Location: El Hornillo
(40.2499°N, 5.1036°W)
Time: 22:44:11
(UTC+00:00)

Exosat Rocket - Pass Details

Date: 05 August 2024
Orbit: 761 x 2513 km, 72.3° (Epoch: 18 September)

Event Time Altitude Azimuth Distance (km) Brightness Sun altitude
Rises 22:06:05 0° 333° (NNW) 3,235 8.1 -24.4°
Reaches altitude 10° 22:08:24 10° 328° (NNW) 2,303 7.0 -24.7°
Maximum altitude 22:13:15 53° 252° (WSW) 990 4.1 -25.2°
Enters shadow 22:14:22 45° 212° (SSW) 1,123 4.1 -25.4°
